Regional Weather Roundup
Issued by NWS

Home | Current Version | Previous Version | Text Only | Print | Product List | Glossary Off
Versions: 1 2 3 4 5 6 7 8 9 10 11 12 13 14 15 16 17 18 19 20 21 22 23 24 25 26 27

000
ASUS45 KSLC 221610
RWRUT

UTAH REGIONAL WEATHER ROUNDUP
NATIONAL WEATHER SERVICE SALT LAKE CITY UT
900 AM MST WED NOV 22 2017

UTZ001>011-023>025-221700-

NORTHERN UTAH

CITY           SKY/WX    TMP DP  RH WIND       PRES   REMARKS
BRIGHAM CITY   CLOUDY    45  41  84 CALM      30.44R
DUGWAY         MOSUNNY   42  37  83 CALM      30.44R
HILL AFB       PTSUNNY   49  38  64 SE9       30.44R
LOGAN          CLOUDY    46  42  86 CALM      30.42R
OGDEN          CLOUDY    48  39  71 S6        30.43R
SALT LAKE CITY PTSUNNY   50  39  66 SE5       30.43R
TOOELE VALLEY  SUNNY     46  41  81 S3        30.44R
WENDOVER       NOT AVBL
HEBER CITY       N/A     34  34 100 CALM      30.49R FOG
WEST JORDAN    SUNNY     51  40  66 S5        30.45R

$$

UTZ011>015-024>027-221700-

CENTRAL/NORTHEAST UTAH

CITY           SKY/WX    TMP DP  RH WIND       PRES   REMARKS
PROVO AIRPORT  PTSUNNY   44  38  79 SW5       30.48R
MOAB/CANYONLAN MOSUNNY   40  15  36 CALM      30.46R
DELTA          SUNNY     41  32  70 CALM      30.47R
PRICE          SUNNY     45  31  58 CALM      30.47R
RICHFIELD      SUNNY     37  37 100 CALM      30.52R
ROOSEVELT      CLOUDY    39  30  70 CALM      30.49R
VERNAL         CLOUDY    43  32  65 CALM      30.47R

$$

UTZ013>016-019>022-027-221700-

SOUTHERN UTAH

CITY           SKY/WX    TMP DP  RH WIND       PRES   REMARKS
BRYCE CANYON   SUNNY     39  33  79 CALM      30.53R
CEDAR CITY     MOSUNNY   43  35  73 CALM      30.44R
MILFORD        SUNNY     38  31  76 CALM      30.46R
ST GEORGE      SUNNY     46  20  35 N5        30.38R
HANKSVILLE     MOSUNNY   36  12  38 CALM      30.50R
KANAB          SUNNY     48  32  53 NE3       30.46R
BLANDING         N/A     52  30  42 CALM      30.51S

$$

REGIONAL REPORTS     COLORADO/ARIZONA

CITY           SKY/WX    TMP DP  RH WIND       PRES   REMARKS
CRAIG, CO      CLOUDY    37  33  85 CALM      30.48R
GRAND JUNCTION CLOUDY    40  31  70 E6        30.49R
RIFLE, CO      CLOUDY    35  32  88 CALM      30.51S
MONTROSE, CO   CLOUDY    38  30  73 S5        30.53R WCI  34
CORTEZ, CO     CLOUDY    42  28  57 E5        30.44S
COLORADO CITY    N/A     46  32  57 SE3       30.44S
PAGE, AZ       SUNNY     49  24  37 VRB3      30.44R
GRAND CANYON   SUNNY     43  27  53 CALM      30.47S
KINGMAN, AZ    SUNNY     61  24  24 NE7       30.33R
FLAGSTAFF, AZ  SUNNY     50  30  46 E6        30.48R

$$

REGIONAL REPORTS    NEVADA/IDAHO/WYOMING

CITY           SKY/WX    TMP DP  RH WIND       PRES   REMARKS
LAS VEGAS, NV  SUNNY     61  36  39 CALM      30.30R
ELY, NY        SUNNY     35  30  82 S12       30.50R WCI  27
ELKO, NV       FOG       35  33  92 NE3       30.46R VSB<1/4
POCATELLO, ID  CLOUDY    43  42  97 N6        30.38R
BURLEY, ID     PTSUNNY   50  45  83 CALM      30.34R
FORT BRIDGER,    N/A     46  40  79 SW6       30.50R
EVANSTON, WY   CLOUDY    44  38  79 SW15      30.48R
ROCK SPRINGS,  CLOUDY    43  36  76 W22       30.44R
KEMMERER, WY   CLOUDY    41  36  81 W5        30.47R

$$




USA.gov is the U.S. government's official web portal to all federal, state and local government web resources and services.